Flag for U.S.A. Weather past 2 weeks in Aliso Viejo, California, U.S.A.

103 °F

Passing clouds.

Feels Like: 99 °F
Forecast: 66 / 93 °F
Wind: 7 mph from North

Location: John Wayne Airport-Orange County Airport

Current Time: Oct 9, 2015 at 3:09:44 PM

Latest Report: Oct 9, 2015 at 1:53 PM

Visibility: 10 mi

Pressure: 29.83 "Hg

Humidity: 15%

Dew point: 46 °F

Location of Aliso ViejoLocation

Historic Weather in Aliso Viejo — Graph


Aliso Viejo temperature yesterday

Maximum temperature yesterday: 84 °F (at 3:53 PM)
Minimum temperature yesterday: 66 °F (at 3:53 AM)
Average temperature yesterday: 74 °F

Past Weeks' High & Low Weather Summary

High101 °F (Oct 9, 12:53 PM)100% (Sep 26, 4:01 AM)30.10 "Hg (Sep 26, 4:01 AM)
Low61 °F (Oct 5, 2:53 AM)16% (Oct 9, 12:53 PM)29.55 "Hg (Oct 3, 6:53 PM)
Average73 °F73%29.85 "Hg
* Reported Sep 24 12:53 PM — Oct 9 12:53 PM, Aliso Viejo, Weather by CustomWeather, © 2015

Note: Actual official high and low records may vary slightly from our data, if they occured in-between our weather recording intervals... More about our weather records


Aliso Viejo weather history for previous 24 hours

Time TempWeatherWind HumidityBarometerVisibility
12:53 PM
Fri, Oct 9
101 °FPassing clouds.5 mph16%29.86 "Hg10 mi
11:53 AM100 °FPassing clouds.5 mph18%29.89 "Hg10 mi
10:53 AM89 °FPassing clouds.No wind41%29.91 "Hg10 mi
9:53 AM80 °FPassing clouds.No wind56%29.92 "Hg10 mi
8:53 AM75 °FScattered clouds.No wind66%29.93 "Hg8 mi
7:53 AM69 °FPartly sunny.3 mph81%29.92 "Hg10 mi
6:53 AM68 °FPassing clouds.No wind84%29.91 "Hg10 mi
5:53 AM68 °FPassing clouds.No wind84%29.90 "Hg10 mi
4:53 AM68 °FClear.No wind84%29.88 "Hg10 mi
3:53 AM69 °FClear.3 mph81%29.88 "Hg10 mi
2:53 AM69 °FClear.3 mph84%29.90 "Hg10 mi
1:53 AM70 °FClear.No wind79%29.91 "Hg10 mi
12:53 AM70 °FClear.No wind87%29.90 "Hg10 mi
11:53 PM
Thu, Oct 8
71 °FClear.No wind84%29.91 "Hg10 mi
10:53 PM72 °FPassing clouds.No wind81%29.91 "Hg8 mi
9:53 PM73 °FClear.No wind79%29.91 "Hg10 mi
8:53 PM74 °FClear.No wind79%29.92 "Hg10 mi
7:53 PM74 °FPassing clouds.5 mph76%29.92 "Hg10 mi
6:53 PM76 °FPassing clouds.5 mph69%29.91 "Hg10 mi
5:53 PM79 °FPassing clouds.5 mph67%29.90 "Hg10 mi
4:53 PM83 °FPassing clouds.8 mph48%29.89 "Hg10 mi
3:53 PM84 °FPassing clouds.6 mph45%29.89 "Hg10 mi
Weather by CustomWeather, © 2015

See weather overviewHow to use our weather pages